Simultaneous Nadir Overpasses (SNOs) Predictions

Prediction of SNOs between NOAA-19 and METOP-C Satellite Orbit:

Table of predicted SNOs for the next 14.0 days since TLE Epoch: 2/6/2021
Index Date (NOAA-19) Time (NOAA-19) Lat,Lon (NOAA-19) SZA (NOAA-19 ) Date (METOP-C) Time (METOP-C) Lat,Lon (METOP-C) SZA (METOP-C ) Distance(km) Time Diff (sec)
1 02/15/2021 01:18:41 -80.38, 6.88 86.27 02/15/2021 01:19:52 -80.36, 6.82 86.28 2.50 71
2 02/15/2021 02:09:43 80.37, 174.44 93.73 02/15/2021 02:10:31 80.38, 174.28 93.74 3.06 48
3 02/15/2021 03:00:41 -80.38, -18.47 86.29 02/15/2021 03:01:13 -80.38, -18.33 86.27 2.50 32
4 02/15/2021 03:51:44 80.38, 148.74 93.70 02/15/2021 03:51:53 80.36, 148.81 93.69 1.90 9
5 02/15/2021 04:42:41 -80.37, -43.82 86.32 02/15/2021 04:42:35 -80.37, -43.81 86.32 0.30 6
6 02/15/2021 05:33:44 80.37, 123.39 93.68 02/15/2021 05:33:15 80.35, 123.34 93.65 2.00 29
7 02/15/2021 06:24:41 -80.36, -69.17 86.34 02/15/2021 06:23:57 -80.36, -69.28 86.36 1.93 44



Historial Predications of SNOs between NOAA-19 and METOP-C
